Вернуться в каталог

STARLINK-4393

АктивенСвязьSSO
NORAD 53470·PAYLOAD·🇺🇸 United States

Запущен Aug 12, 2022 с Vandenberg Space Force Base

Loading…

Ближайшие Пролёты (ближайшие 24 часа)

TLE

СвежийSource: CelesTrak SupGP

Эпоха: Sep 14, 2026, 20:26 UTC

1 53470C 22099F   26257.85187500  .00599440  00000+0  34707-1 0  2576
2 53470  97.2852  11.9662 0001663  93.3493  31.2724 15.12012069    13

Отслеживайте STARLINK-4393 в реальном времени с AllMySat

Download on the App Store